Погода в Одине

Россия / Курганская область     55°50′15″N   67°03′20″E
темп.,
°C
ветер,
м/с
пор.,
м/с
влажн.,
%
обл.,
%
осадки,
мм/ч
давл.,
гПа
погр.,
м
6 марта, сб
сб623:00−2ююз71397100 1.8 999766
02:00−1зюз81395100 1.5 997700
05:00−5з7139297 1.6 1001600
08:00−12з7149176 0.0 1005369
11:00−10з7128549 0.0 1008482
14:00−7з711830 0.0 1009857
17:00−8зюз6118834 0.0 1009470
20:00−12юз5119323 0.0 1010200
7 марта, вс
вс723:00−12юз6129112 0.0 1011255
02:00−14зюз479557 0.0 1012134
05:00−16зюз349647 0.0 101334
08:00−15ююз2394100 0.0 101424
11:00−10ююв3494100 0.0 1013242
14:00−8юв4693100 0.5 1010344
17:00−8в6995100 2.2 1005505
20:00−8всв61195100 3.0 1000487
8 марта, пн
пн823:00−8с61095100 6.2 998358
02:00−11сз71293100 0.4 1000397
05:00−13зсз61394100 0.4 1005354
08:00−17з5109585 0.0 1008204
11:00−14зюз579353 0.0 1010284
14:00−12юз698788 0.0 1011480
17:00−11ююз6128694 0.0 1011649
20:00−11ююз61393100 0.1 1010617
9 марта, вт
вт923:00−9юз7149399 0.3 1010616
02:00−8ююз71493100 0.3 1009584
05:00−7ююз71492100 0.4 1009608
08:00−7ююз81491100 0.2 1009606
11:00−8ююз81491100 0.3 1008575
14:00−6ююз91590100 0.1 1006735
17:00−5юз91490100 0.2 1006880
20:00−6юз61491100 0.1 1007551
10 марта, ср
ср1023:00−6юз51095100 0.2 1008306
02:00−8юз3397100 0.0 100748
05:00−10ю2397100 0.1 100629
08:00−10ю3497100 0.0 100595
11:00−7ююз2493100 0.1 1003262
14:00−5ююв2293100 0.3 1001277
17:00−4ююв1295100 1.3 999210
20:00−6сз4696100 1.3 999281